User: anonymous   Login
Location: Alfortville
(48.8058°N, 2.4204°E)
Time: 02:51:09
(UTC+00:00)
Language:

HJ-1C - Orbit

View from above orbital plane
View from above orbital plane
View from above satellite
View from above satellite

Ground track
Ground track

The orbit data is extracted from the following two-line orbital elements,

1 38997U 12064A   22018.57466810  .00012397  00000-0  24724-3 0  9993
2 38997  97.1004  48.2246 0010445  55.5254  62.1182 15.46938690515300
Epoch (UTC): 18 January 2022 13:47:31
Eccentricity: 0.0010445
inclination: 97.1004°
perigee height: 418 km
apogee height: 433 km
right ascension of ascending node: 48.2246°
argument of perigee: 55.5254°
revolutions per day: 15.46938690
mean anomaly at epoch: 62.1182°
orbit number at epoch: 51530

The dashed part of the orbit path shows where the satellite is in the earth's shadow,  

DLR